Showing default

LEMUR 2 WILSON, 62694

Orbit data source: Space-Track

LEMUR 2 WILSON, 62694 is a payload satellite owned by Spire (US) in SSO that was launched on Tue, 14 Jan 2025 UTC via an FALCON 9 launch vehicle from the Air Force Western Test Range (AFWTR). Payload-class satellites include a variety of spacecraft equipped with specific instruments for various scientific and technological missions. These include communications satellites like Starlink; space stations such as the ISS; scientific satellites like the Hubble; Earth observation satellites from companies like Planet Labs, Umbra, and HawkEye 360; GPS; miniature CubeSats for education and research; and military/defense satellites.

Loading next visibility...
Identifier
62694, 2025-009CP
Orbit
SSO
Country
Flag of USUS
Related business
Manufacturer
Spire/Glasgow
Mission
Operational Commercial Com/MetRO
Bus & Motor
CUBESAT 3U, Unknown motor
Mass
7.6 kg wet, 7.6 kg dry
Launch date (UTC)
2025-01-14 (1 year ago)
Launch vehicle
FALCON 9
Launch site
Air Force Western Test Range (AFWTR)
Object type
Payload
Rocket body
Debris
Shape & HBR
Box + 2 Pan, 0.5 m
Radar Cross Section
0.063 m², Medium (>0.1 m² and < 1m²)

Expand to show TLE details & history
Last TLE update: 21 hours ago

TLE from 21 hours ago
0 LEMUR 2 WILSON
1 62694U 25009CP  26067.76083588  .00004620  00000-0  43119-3 0  9992
2 62694  97.7069 148.0059 0003602  39.4240 320.7242 14.94673795 62358
Epoch: 2026-03-08T18:15Z
TLE epoch observation values (Epoch: 2026-03-08T18:15:36.220Z)
Latitude
-0°
Longitude
67.64148°
Altitude
584.491 km
Speed
7.569 km/s
True Right ascension
09h 52m 01s
True Declination
0° 00' 00"
Sunlit
Object was in full shadow at epoch
Visualization orbit readout
Latitude
Unknown
Longitude
Unknown
Altitude
Unknown
Speed
Unknown
Apparent Right ascension
Unknown
Apparent Declination
Unknown
Sunlit
N/A
Visualization observer readout
Local Sidereal Time
19:18:36
Azimuth
Unknown
Elevation
Unknown
Doppler factor
Unknown
Orbital elements
Apogee altitude
582.905 km
Perigee altitude
577.892 km
Semi-major axis
6,958.535 km
Eccentricity
0.00036
Inclination
97.7069°
RAAN
148.0059°
Arg. of periapsis
39.424°
True anomaly
320.69806°
Mean anomaly
320.7242°
Eccentric anomaly
320.71113°
Mean motion
3.73909 °/min
Orbital period
96.28 mins
BSTAR
0.00043119
Loading maneuver chart data...
Computing Atmospheric mass density...
Loading historical data...
Loading historical data...
Loading historical data...
Loading historical data...
Loading historical data...
Loading historical data...
Loading historical data...

Documentation

Showing up to 5 results
|